RH
100 100 100 100 88 80 73 76 71 64 57 71 77 90 88 74 76 98 99 96 94 82 81 84 85 73 61 48 45 38 33 31
100 100 95 100 100 100 92 82 100 93 100 100 100 92 83 86 96 85 73 69 70 74 70 61 51 45 42 35 33 33 36 36
100 100 100 95 93 100 98 99 99 100 100 100 97 93 85 71 64 64 61 64 66 50 49 49 40 34 35 38 39 37 33 34
94 100 100 100 100 100 100 100 100 100 100 100 95 85 69 47 45 46 38 42 49 43 38 38 41 39 43 40 36 36 40 43
96 88 77 66 66 83 100 100 96 82 66 59 60 64 54 34 49 52 44 35 37 42 48 46 40 40 40 39 41 42 46 48
81 81 81 84 89 88 79 80 66 62 58 53 45 37 44 55 41 28 30 33 42 50 48 42 40 40 43 42 43 46 49 51
68 61 62 63 65 65 70 62 67 70 57 73 63 70 51 43 34 26 38 43 49 50 45 43 45 44 43 45 50 50 53 51
74 65 66 59 52 52 64 52 55 64 80 100 100 75 60 65 50 50 49 50 52 53 47 48 47 50 50 58 59 53 53 53
69 68 73 65 40 40 48 67 79 71 97 100 98 92 83 88 77 61 48 61 50 46 52 53 54 54 57 58 53 49 52 57
83 78 44 38 60 75 69 71 76 76 90 99 83 92 92 81 62 62 70 53 48 51 55 56 55 56 61 57 53 55 55 56
39 37 53 58 46 58 79 98 89 70 70 90 100 100 89 64 71 62 56 55 58 55 56 53 52 55 59 55 56 55 56 64
74 61 46 46 64 76 66 57 65 68 86 94 100 98 75 68 65 61 58 58 52 50 52 55 62 61 58 58 54 61 70 77
67 46 56 61 66 61 62 73 96 100 100 100 98 84 75 70 65 58 55 50 54 57 66 71 68 61 60 61 68 80 83 80
48 56 66 67 66 68 82 100 100 99 92 78 59 62 74 67 61 58 53 61 64 76 75 72 71 70 72 78 83 79 80 76
54 70 74 84 72 83 89 91 89 75 65 75 76 78 77 71 67 64 68 68 76 79 79 77 79 80 82 85 79 82 79 77
51 70 77 71 77 80 82 93 78 70 72 77 79 81 81 78 81 76 73 80 85 83 77 79 88 87 84 83 84 89 86 83
69 69 64 69 80 81 76 70 76 93 96 97 96 92 88 87 77 72 76 75 76 75 85 81 86 77 85 87 92 92 92 80
70 68 77 78 76 76 75 82 92 98 96 88 82 80 79 70 67 70 75 76 78 85 91 90 90 99 91 91 92 93 75 56
91 90 82 82 78 80 85 88 91 82 71 70 76 73 64 66 73 83 86 84 89 96 88 86 95 97 94 93 87 71 57 52
Wind_Speed
37 44 44 38 41 39 42 42 47 47 52 62 56 59 62 61 66 69 70 71 71 71 69 68 70 74 75 73 71 72 76 78
41 42 45 44 44 45 46 42 41 49 52 55 60 63 64 71 72 72 69 69 71 65 65 68 69 68 67 67 71 75 78 80
39 37 40 47 47 49 51 53 51 57 57 54 57 59 64 64 66 65 65 60 60 61 60 60 61 63 67 70 71 75 77 76
33 37 38 45 48 52 53 54 51 51 53 58 64 68 65 61 58 57 56 53 51 51 53 57 61 63 65 69 73 74 73 77
32 34 38 38 42 44 43 44 47 54 54 54 56 58 57 55 50 46 44 45 48 51 56 61 63 67 71 72 72 72 77 81
36 36 36 37 35 38 43 45 45 46 48 49 49 49 48 45 45 43 44 47 51 57 61 65 67 70 71 73 71 76 82 85
33 36 38 41 41 43 44 45 44 47 40 38 41 39 40 42 44 44 47 52 57 61 65 68 70 70 69 71 76 79 82 83
38 36 34 37 38 40 42 40 38 35 30 33 38 43 45 45 50 52 54 59 59 62 67 69 68 69 72 75 80 83 85 87
35 35 35 40 41 39 38 31 28 26 27 33 42 48 50 52 55 57 61 58 62 67 69 69 70 73 77 82 84 85 86 89
39 41 37 34 30 29 30 27 28 29 30 37 44 49 55 58 59 60 58 62 66 71 70 71 73 78 81 84 86 89 91 94
35 34 33 29 27 27 26 28 31 31 32 37 45 52 57 57 58 59 62 66 70 72 72 73 77 82 85 86 89 93 95 99
33 30 26 24 21 22 26 28 30 35 35 39 45 51 57 59 60 64 67 70 74 74 75 80 84 87 88 90 94 97 101 99
29 25 23 22 24 26 29 31 33 35 37 44 51 56 57 64 67 69 71 73 76 78 81 86 91 92 94 96 98 102 101 99
27 24 23 25 27 29 30 33 38 41 46 50 53 56 63 67 69 71 73 78 80 82 86 91 95 98 98 101 102 102 101 105
27 24 24 28 31 30 33 38 42 48 48 54 57 60 66 70 71 73 78 82 83 87 91 95 100 102 102 104 105 102 106 110
27 26 29 33 32 33 38 43 47 50 54 58 61 64 69 72 74 78 82 85 88 92 96 98 102 104 106 104 102 107 111 113
29 31 34 35 38 42 46 49 52 56 59 63 65 68 71 75 78 82 84 88 91 95 100 100 101 105 104 104 108 111 114 116
34 34 37 41 43 47 50 53 57 61 63 65 69 72 76 79 81 84 87 91 95 99 100 104 107 107 105 109 112 115 117 118
38 40 42 46 48 51 55 59 62 64 65 68 73 76 79 81 84 87 92 96 98 100 102 106 105 106 109 113 117 117 118 119
Wind_Direction
222 221 218 227 234 223 235 235 239 249 254 257 265 271 273 277 274 274 277 281 283 287 289 291 290 291 292 295 298 301 300 300
231 232 230 235 240 239 238 244 253 251 256 261 263 265 266 268 272 282 287 286 287 287 288 289 291 294 298 300 299 300 300 299
236 237 244 246 250 253 254 257 260 259 266 270 268 275 280 284 284 285 285 285 286 288 291 292 295 299 300 300 301 299 298 300
256 254 255 252 254 254 261 262 265 273 274 278 278 280 285 285 284 284 285 287 289 290 293 297 299 300 300 299 301 302 304 306
262 264 263 266 267 269 270 274 279 280 284 284 281 279 281 283 282 284 286 288 291 294 297 299 299 299 302 302 302 302 305 306
261 266 269 266 272 274 273 270 278 284 286 284 282 280 279 276 277 281 288 292 295 296 296 298 302 303 303 303 303 303 305 306
269 268 268 270 267 272 273 274 276 279 281 281 278 276 285 288 289 292 296 298 298 297 299 302 304 303 304 305 307 306 307 305
268 268 268 267 266 265 267 271 272 274 279 276 279 282 290 291 292 298 299 300 299 301 302 302 302 303 304 308 307 306 306 305
274 275 272 270 270 267 267 270 270 284 273 267 276 285 291 294 294 295 297 297 299 304 304 303 302 303 306 306 306 306 306 307
274 270 270 266 268 269 268 273 272 280 272 271 278 283 287 288 292 294 293 297 302 304 304 303 304 305 306 307 307 309 309 308
273 266 263 265 265 263 268 274 279 285 285 281 284 281 281 287 290 294 297 300 302 303 303 304 305 307 309 309 309 310 310 311
267 262 265 266 269 274 274 279 283 285 285 281 279 277 278 289 294 298 297 299 301 303 304 307 309 310 311 310 311 312 311 310
259 263 264 270 273 280 287 289 290 288 279 275 277 283 289 295 296 298 299 301 304 306 309 312 312 312 311 312 312 313 312 311
261 258 267 275 279 283 289 282 283 281 283 283 287 286 292 295 297 300 303 305 307 310 313 313 312 313 313 313 313 312 312 312
253 261 270 272 276 282 282 282 279 282 285 287 290 295 299 299 302 303 305 307 310 312 312 313 314 314 313 313 313 313 313 313
256 256 260 266 275 274 275 276 279 286 292 298 299 298 299 302 303 304 306 310 312 313 314 314 313 312 313 313 313 314 314 315
254 258 264 272 276 277 279 285 293 297 297 294 296 299 302 302 303 305 308 312 312 312 313 312 311 311 313 314 314 314 314 313
260 265 269 271 276 283 288 291 292 292 293 295 298 299 300 302 304 306 310 310 311 312 312 313 314 314 313 313 314 314 313 313
263 268 272 276 280 284 286 288 289 290 292 294 296 297 300 303 305 309 309 310 311 311 312 313 313 312 313 313 313 313 314 314